User: anonymous   Login
Location: Unspecified
(0.0000°N, 0.0000°E)
Time: 12:50:42
(UTC+01:00)
Language:

PSLV R/B - Orbit

View from above orbital plane
View from above orbital plane
View from above satellite
View from above satellite

Ground track
Ground track

The orbit data is extracted from the following two-line orbital elements,

1 29713U 07001E   16342.53203809  .00000385  00000-0  51151-4 0  9999
2 29713  97.7395 314.1875 0025478   7.9547 352.2067 14.84958487535625
Epoch (UTC): 07 December 2016 12:46:08
Eccentricity: 0.0025478
inclination: 97.7395°
perigee height: 596 km
apogee height: 631 km
right ascension of ascending node: 314.1875°
argument of perigee: 7.9547°
revolutions per day: 14.84958487
mean anomaly at epoch: 352.2067°
orbit number at epoch: 53562

The dashed part of the orbit path shows where the satellite is in the earth's shadow,  

DLR